Tracking 31028 objects as of 17-Jul-2025
HD Live streaming from Space Station
objects crossing your sky now

STARLINK-5328

Track STARLINK-5328 now!
10-day predictions
STARLINK-5328 is classified as:


NORAD ID: 55657
Int'l Code: 2023-021AF
Perigee: 579.1 km
Apogee: 582.9 km
Inclination: 70.0 °
Period: 96.1 minutes
Semi major axis: 6952 km
RCS: Unknown
Launch date: February 17, 2023
Source: United States (US)
Launch site: AIR FORCE WESTERN TEST RANGE (AFWTR)
Your satellite tracking list
Your tracking list is empty




NASA's NSSDC Master Catalog

Two Line Element Set (TLE):
1 55657U 23021AF  25197.51417591 -.00073931  00000-0 -63499-2 0  9991
2 55657  69.9997  40.1024 0002732 146.3573 213.7760 14.97741176133902
Source of the keplerian elements: AFSPC